Regional Weather Roundup
Issued by NWS

Home | Current Version | Previous Version | Text Only | Print | Product List | Glossary On
Versions: 1 2 3 4 5 6 7 8 9 10 11 12 13 14 15 16 17 18 19 20 21 22 23 24 25 26 27 28 29 30 31 32 33 34 35 36 37 38 39 40 41 42 43 44 45 46 47 48 49 50
000
ASCA44 KEWX 180020
RWRMX

LATIN AMERICA AND CARIBBEAN REGIONAL WEATHER ROUNDUP
NATIONAL WEATHER SERVICE AUSTIN/SAN ANTONIO TX
600 PM CST FRI NOV 17 2017

NOTE: "FAIR" INDICATED FEW OR NO CLOUDS BELOW 12,000 FEET WITH NO
SIGNIFICANT WEATHER AND/OR OBSTRUCTIONS TO VISIBILITY.

BAJA CALIFORNIA

CITY           SKY/WX    TMP DP  RH WIND       PRES   REMARKS

NORTHWESTERN MEXICO

CITY           SKY/WX    TMP DP  RH WIND       PRES   REMARKS
CULIACAN       CLEAR     90  59  35 NW6       29.85
DURANGO        CLEAR     77  30  18 CALM      30.18
GUAYMAS        CLEAR     81  57  44 S10       29.84
HERMOSILLO     PTCLDY    91  34  13 W7        29.93S
CD. JUAREZ     MOCLDY    79  23  12 W10       29.96
LOS MOCHIS     CLEAR     86  39  19 NW12      29.89F
OBREGON        CLEAR     88  41  19 SW6       29.86

NORTHEASTERN MEXICO

CITY           SKY/WX    TMP DP  RH WIND       PRES   REMARKS
CHIHUAHUA      PTCLDY    82  32  16 CALM      30.00
MATAMOROS      PTCLDY    77  70  78 SE8       29.92
MONCLOVA         N/A    N/A N/A N/A MISG        N/A
MONTERREY      CLEAR     79  63  57 SE3       29.90S
NUEVO LAREDO   CLEAR     82  63  51 CALM      29.85
PIEDRAS NEGRAS CLEAR     81  68  65 SE9       29.87F
REYNOSA        CLEAR     77  64  65 SE6       29.90
SALTILLO       CLEAR     75  54  46 CALM      30.12S
TORREON        CLEAR     86  39  19 NE3       30.00S
CD. VICTORIA   CLEAR     82  57  42 MISG      29.91

WESTERN MEXICO

CITY           SKY/WX    TMP DP  RH WIND       PRES   REMARKS
AGUASCALIENTES CLEAR     75  19  12 SW6       30.20
COLIMA         PTCLDY    77  72  83 W7        29.99
DEL BAJIO      CLEAR     75  25  15 N5        30.23R
GUADALAJARA    CLEAR     77  32  19 W5        30.13
MANZANILLO     PTCLDY    86  75  70 SW12      29.84R HX  95
P. VALLARTA    CLEAR     84  77  79 S10       29.86R HX  94
URUAPAN        PTCLDY    72  61  68 CALM      30.15R
ZACATECAS      CLEAR     72  25  17 NE12      30.25R

CENTRAL MEXICO

CITY           SKY/WX    TMP DP  RH WIND       PRES   REMARKS
CUERNAVACA     CLEAR     75  46  35 CALM      30.06S
MEXICO CITY    CLEAR     72  23  16 N6        30.26R
MORELIA        CLEAR     68  48  49 S3        30.17
POZA RICA      CLEAR     81  75  83 MISG      29.99R
PUEBLA         CLEAR     63  36  36 SW12      30.26R
QUERETARO      CLEAR     73  19  13 NE10      30.24R
S. LUIS POTOSI CLEAR     73  14  10 E5        30.19S
TAMPICO        CLEAR     77  72  83 SE14      29.92S
TOLUCA         CLEAR     63  39  42 S9        30.32R

SOUTHERN MEXICO

CITY           SKY/WX    TMP DP  RH WIND       PRES   REMARKS
ACAPULCO       PTCLDY    84  75  74 W7        29.85R HX  92
B. DE HUATULCO PTCLDY   N/A N/A N/A CALM      29.90
OAXACA         PTCLDY    75  48  38 SW2       30.13R
P. ESCONDIDO   PTCLDY    81  75  83 CALM      29.96R
VERACRUZ       PTCLDY    77  72  83 SE3       29.96R
ZIHUATANEJO    PTCLDY    86  75  70 W8        29.85R HX  95

YUCATAN PENINSULA

CITY           SKY/WX    TMP DP  RH WIND       PRES   REMARKS
CAMPECHE       CLEAR     79  70  73 N12       29.92S
CANCUN         CLEAR     72  64  78 N3        29.97F
CHETUMAL       PTCLDY    73  66  78 CALM      29.94
CD. DEL CARMEN CLEAR    N/A N/A N/A N12       29.95
COZUMEL        PTCLDY    77  66  69 NE6       29.95R
MERIDA         PTCLDY    77  63  61 NE7       29.97R
TAPACHULA      PTCLDY    82  75  78 SW8       29.83R
TUX. GUTIERREZ MOCLDY    77  66  69 NW15      29.94R
VILLAHERMOSA   PTCLDY    75  72  88 CALM      29.96R

CENTRAL AMERICA

CITY           SKY/WX    TMP DP  RH WIND       PRES   REMARKS
BELIZE CITY    PTCLDY    79  68  69 N3        29.93S
MANAGUA        MOCLDY    82  72  69 SE5       29.80S

CARIBBEAN

CITY           SKY/WX    TMP DP  RH WIND       PRES   REMARKS
ARUBA          PTCLDY    81  77  89 VRB3      29.77S
CURACAO        PTCLDY    82  75  78 NE3       29.80R
KINGSTON       PTCLDY    82  75  78 N8        29.77S
NASSAU         PTCLDY    79  52  38 N12       29.97R
SAN JUAN       PTCLDY    82  75  78 S5        29.79R
SANTO DOMINGO  LGT RAIN  81  77  89 W7        29.77R
ST. KITTS      PTCLDY    81  75  83 CALM      29.83S
ST. THOMAS       N/A    N/A N/A N/A MISG      29.82

$$




USA.gov is the U.S. government's official web portal to all federal, state and local government web resources and services.